Lid_Strength_Index
2 2 3 2 2 2 2 2 1 1 1 1 1 1 1 2 2 1 1 1 2 2 1 2 2 1 2 2 2 3 4 4 5 3 3 2 2 2 2 2 1 2 2
3 3 3 2 2 2 2 2 1 1 1 1 1 1 1 1 2 3 2 1 2 2 2 2 2 1 2 2 2 3 4 4 5 5 3 3 3 3 2 2 2 0 1
4 4 5 4 2 3 2 1 1 1 1 1 1 1 1 1 1 1 2 1 2 2 2 2 2 2 2 2 3 4 4 3 4 4 4 3 3 2 3 2 2 2 0
3 4 4 4 3 3 3 3 2 1 1 1 1 1 1 1 1 1 1 2 2 2 1 2 2 2 2 2 3 4 4 3 3 4 4 4 4 3 3 4 4 3 2
3 4 3 3 2 2 2 2 2 2 2 1 1 1 1 1 1 1 1 2 2 2 2 2 2 2 3 3 3 3 4 4 4 5 4 5 4 4 4 4 4 4 3
3 4 3 3 3 3 3 3 3 3 3 2 2 2 1 1 4 6 5 2 2 2 2 2 1 5 5 7 6 5 4 4 4 4 5 5 4 4 4 4 4 4 5
3 2 2 2 2 3 3 3 3 3 3 4 3 2 2 1 5 6 6 4 2 2 2 2 2 1 5 5 8 8 6 6 4 3 4 4 4 3 3 4 4 4 4
3 2 2 3 3 3 3 3 3 4 4 4 4 4 3 1 6 7 7 3 2 2 2 2 3 4 5 5 5 4 4 4 4 2 3 3 3 2 2 3 3 4 3
3 3 2 2 3 4 4 4 4 4 4 4 4 4 4 2 5 6 6 2 3 2 2 2 2 3 10 8 4 4 5 5 8 9 8 9 10 9 5 3 4 3 4
3 2 2 2 3 4 4 4 4 4 4 3 3 3 3 2 5 8 7 2 3 2 2 2 7 4 11 10 4 4 5 6 5 5 5 6 6 6 7 3 3 3 4
3 3 2 3 3 3 3 3 4 4 4 4 3 2 2 2 2 7 8 4 2 3 3 2 4 11 12 11 6 3 3 4 5 4 4 4 4 3 2 2 2 2 3
3 3 3 3 3 3 4 3 3 4 5 5 4 3 2 2 4 5 9 11 5 2 3 3 7 11 12 12 7 11 10 6 3 4 4 4 4 3 2 2 2 1 1
5 5 5 4 4 3 4 4 4 3 4 4 3 3 3 2 2 6 11 12 10 2 2 8 13 13 13 11 12 11 9 3 4 4 3 3 4 3 2 2 1 1 1
6 5 4 4 4 4 4 4 4 4 4 4 4 4 3 3 2 4 7 8 10 8 11 11 10 9 9 9 8 7 3 4 4 4 4 3 2 3 3 2 2 2 2
5 5 6 6 6 6 5 5 4 3 3 4 3 3 4 4 3 5 5 4 5 7 7 6 5 6 5 5 5 4 3 3 3 4 4 4 3 2 3 2 2 2 3
8 8 7 6 6 6 6 5 7 7 8 8 7 3 2 5 9 11 10 11 11 10 5 5 5 5 4 4 4 4 2 4 3 3 3 3 2 2 3 3 2 3 4
9 8 7 7 7 7 6 5 5 6 8 7 9 8 9 8 11 11 11 11 12 8 4 4 4 5 4 3 3 4 3 3 2 2 2 2 2 2 4 3 3 3 4
8 8 7 6 4 4 5 4 3 4 4 5 9 7 10 11 11 11 12 9 5 5 4 5 4 3 3 3 3 3 3 3 3 3 3 2 2 2 4 3 3 3 3
7 7 4 3 4 4 3 4 4 4 4 7 6 10 11 13 12 12 10 3 4 4 4 4 3 2 2 2 2 3 3 3 3 3 3 3 2 3 3 3 3 10 7
6 9 7 3 4 4 4 4 4 4 4 4 4 6 7 6 4 4 3 3 3 3 3 3 2 3 2 2 3 3 3 3 3 2 2 2 2 2 2 3 3 3 3
7 6 10 3 3 4 3 4 4 4 4 5 5 5 11 3 3 3 3 3 3 3 3 3 3 2 3 2 3 3 3 3 3 2 2 2 2 2 2 2 2 3 3
8 5 3 3 3 3 4 4 4 5 5 5 5 7 12 3 3 3 2 2 2 2 2 1 2 2 2 1 1 2 3 3 2 3 2 2 2 2 2 2 2 3 3
9 6 3 3 3 6 4 4 4 4 3 4 3 4 4 4 4 4 4 4 4 4 3 3 2 2 1 1 1 1 2 2 2 2 2 2 2 2 2 2 2 3 3
8 3 3 3 3 3 4 4 4 6 3 3 4 5 6 6 7 7 7 7 7 7 7 7 6 4 3 3 4 4 2 1 1 2 2 1 2 4 4 5 5 5 6
6 3 3 3 3 3 3 3 3 4 4 6 7 7 8 8 9 9 9 9 9 10 10 9 8 8 7 6 6 7 12 12 6 9 4 5 6 6 6 7 8 8 7
3 3 3 3 3 3 4 5 5 6 8 8 8 8 9 10 11 11 11 12 12 12 12 11 11 11 11 11 11 14 13 13 10 11 6 7 8 9 9 10 10 10 11